星链-3871 (STARLINK-3871 )

导读

STARLINK-3871是美国太空探索技术公司SpaceX星链星座中的一颗低轨通信卫星,于2022年5月6日发射升空,归属于美国,是星链第一代组网卫星的组成部分。星链项目旨在为全球提供高速低时延宽带互联网接入服务,该卫星采用紧凑平板设计,配备相控阵天线与离子推进系统,运行在近地轨道,支撑全球覆盖的卫星互联网服务,属于SpaceX大规模星座组网计划的一环,助力星链实现全球空天地一体化网络覆盖。

Basic Information
目录编号:
52496
目录名称:
STARLINK-3871
国际标识:
2022-049AX
轨道中心:
EARTH
卫星名称:
星链-3871
卫星全名:
星链-3871 (STARLINK-3871 )
卫星状态:
在轨 (已飞行1582 天)
发射日期:
2022-05-06 UTC
国别 :
美国 (US)
星等 :
--
Orbit Information
数据来源 国际轨道数据
星历时间: 2026-09-04T13:12:21+0800
6小时前
查看轨道信息
半长轴: 6837.873km
偏心率: 0.0001109
轨道倾角: 53.161°
近地点辐角 87.813°
升交点赤经 313.570°
平近点角 272.300°
近地点: 458.977km
远地点: 460.495km
周期: 93.787分钟
每日圈数: 15.353992
Detailed Information
固有亮度:
5
最大亮度:
2.5
卫星平台:
Starlink v1.5
覆盖范围:
全球
运营商:
太空探索技术公司
运营商所在国:
美国
制造商(研发单位):
太空探索技术公司
制造商所在国:
美国
使用方式:
暂无
Satellite Introduction
星链(Starlink)计划是由太空探索技术公司(SpaceX)提出的一个巨型低轨卫星互联网星座项目,计划在2019年至2024年间在太空搭建由约1.2万颗卫星组成的“星链”网络,其中1584颗将部署在地球上空550千米处的近地轨道,并从2020年开始工作。该卫星仍在工作。
2D Orbit Map
3D Orbit Map
Orbit Altitude Analysis Chart
Orbit Inclination Analysis Chart
Orbit Comprehensive Analysis Chart
View Comprehensive Chart
Conjunction Data List
Event ID Objects TCA Miss Dist (km) Collision Risk Probability Collision Risk Index (CRI) Action
CDM_260905-074905-249606-897421
2026-09-05T
07:49:42+0000
2.728 km
极远距离
1.351248E-6 低风险 0.38
CDM_260905-155205-249606-693422
2026-09-05T
15:52:13+0000
2.772 km
极远距离
9.529035E-7 极低风险 0.35
CDM_260905-235305-249606-349521
2026-09-05T
23:53:09+0000
2.921 km
极远距离
9.464559E-7 极低风险 0.35
CDM_260905-111305-249606-688321
2026-09-05T
11:13:20+0000
2.865 km
极远距离
7.198758E-7 极低风险 0.32
CDM_260903-043305-249606-613321
2026-09-03T
04:33:56+0000
2.516 km
极远距离
6.768474E-7 极低风险 0.32
CDM_260904-145705-249606-028021
2026-09-04T
14:57:14+0000
2.915 km
极远距离
3.982919E-7 极低风险 0.27